目前分類:utf8 (41)

瀏覽方式: 標題列表 簡短摘要
發表時間 文章標題 人氣 留言
2017-08-10 1506正道股價走勢-崇越攜漢翔大眾 能源技術高值化 (0) (0)
2017-08-09 9802鈺齊-KY股票分紅-【圖解】台灣火力發電所需的天然氣、煤炭與石油,各來自哪些國家? (0) (0)
2017-08-08 911868同方友友-DR股票一張多少?能源盤後─油價小幅收漲37美分 漲幅仍受限於供給過剩 (0) (0)
2017-08-07 1515力山股票可以買嗎?漲多整理 台股早盤平盤附近震盪 (0) (0)
2017-08-06 9944新麗股票可以買嗎?景氣復甦信心增 投信:台股續漲沒疑慮 (0) (0)
2017-08-05 1506正道股價多少可以買?【大數聚】從美國房市經驗,看台灣房市「崩盤」可能性! (0) (0)
2017-08-05 1506正道股價多少可以買?【大數聚】從美國房市經驗,看台灣房市「崩盤」可能性! (0) (0)
2017-08-02 2481強茂股票一張多少?官股大買權值股 支撐看 10,341點 (0) (0)
2017-08-01 8201無敵股東會紀念品-AIA友邦人壽 獲資安認證 (0) (0)
2017-07-28 8427基勝-KY股價多少可以買?美週產量微降 油價上揚 (0) (0)
2017-07-27 2433互盛電股票能買嗎?能源盤後─美國汽油庫存降幅超過預期 推升油價收漲1.1% (0) (0)
2017-07-26 3257虹冠電股票分紅-金價閃崩 1分鐘跌17美元 拖累貴金屬 白銀急挫1.3% (0) (0)
2017-07-25 2433互盛電股價分析-新台幣貶近1角 收30.438元 (0) (0)
2017-07-23 2849安泰銀股票分紅-台股盤前─台股力拚三線齊收紅 最重要的事是這件…. (0) (0)
2017-07-22 3579尚志股票可以買嗎?政府應積極輔導、留住人才 (0) (0)
2017-07-21 1305華夏股票分紅-【旅遊買對險】出國旅遊不想掃興 你一定要注意6重點 (0) (0)
2017-07-19 2472立隆股東會紀念品-看工具機的未來 程泰董座:高單價、客製化、自動化、智慧化 (0) (0)
2017-07-18 5706鳳凰股價多少可以買?台新投信:美股高點居安思危 看好美國REITs反彈行情 (0) (0)
2017-07-16 3559全智科股票分紅-前10大企業 台電及台塑化居然雙雙落榜 (0) (0)
2017-07-15 2905三商股票可以買嗎?點膠科技研發 自動視覺定位點膠機 (0) (0)
2017-07-14 2497怡利電股票分紅-台泥股東會 董事長張安平主持(3) (圖) (0) (0)
2017-07-13 2889國票金股票能買嗎?台股盤中跌破10400點 台塑化貼息 (0) (0)
2017-07-12 5907大洋-KY股價走勢-市值直飆2兆 謝金河臉書盛讚郭董晉升大聯盟 (0) (0)
2017-07-10 3032偉訓股票一張多少?美股三大指數下挫 台股今齊收三線 (0) (0)
2017-07-09 2530華建股票一張多少?【達人理財】做投資壓力有多大? 天天哭泣還失眠又掉髮 (0) (0)
2017-07-09 2530華建股票一張多少?【達人理財】做投資壓力有多大? 天天哭泣還失眠又掉髮 (0) (0)
2017-07-07 2543皇昌股票可以買嗎?頑抗阻撓!東芝在日本狀告威騰 索償10億美元 (0) (0)
2017-07-06 1469理隆股東會紀念品-張安平主持台泥股東會(1) (圖) (0) (0)
2017-07-05 6155鈞寶股票可以買嗎?產地香蕉價格跌谷底創近年新低 蕉農心淌血 (0) (0)
2017-07-04 3043科風股票可以買嗎?專利檸檬酵素益生菌 桓康生醫新產品 生技展亮相 (0) (0)
2017-07-01 8131福懋科股價多少可以買?御松田 體內環保好幫手 (0) (0)
2017-06-30 5525順天股票一張多少?台股多頭行情未歇 緩步上攻 (0) (0)
2017-06-23 女鞋ADIDAS-ENERGY BOUNCE女慢跑鞋-綠 (0) (0)
2017-06-22 家飾時尚屋 進興胡桃3x5.5尺書桌 寬92cm (0) (0)
2017-06-21 粉水晶消磁【盛硯莊佛教文物】天然臥香座 古木(香座)台中水晶推薦 (0) (0)
2017-06-20 2017手機推薦史努比SNOOPY授權正版6600mAh行動電源 (0) (0)
2017-06-19 臉部保養【DUCRAY護蕾】淨化毛孔精華30ml(3入組) (0) (0)
2017-06-18 供俸雙姓祖先化煞【好運到】大招財五錢8cm滾球流水盆(23 x 23 x 25cm)風水化煞、擋煞方法 (0) (0)
2017-06-17 房間和廚房相鄰化煞【玉祐】綠松石瑪瑙手珠(日本詢問度最高)風水化煞、擋煞方法 (0) (0)
2017-06-16 手錶品牌【SEIKO】Kinetic 互動式人動電能時尚腕錶-藍-42mm(5D22-0AD0B) (0) (0)
2017-06-15 2017手機推薦UAG iPhone 7-6S 頂級版耐衝擊保護殼 (0) (0)
找更多相關文章與討論